Galveston, TX

2:09 AM CDT on October 22, 2017 (GMT -0500)
Scholes International At Galveston

Weather History for KGLS - October, 2013

Change the Weather History Date:

Friday, October 11, 2013

  Actual Average Record
Temperature  
Mean Temperature 81 °F 76 °F  
Max Temperature 86 °F 82 °F 88 °F (1980)
Min Temperature 76 °F 70 °F 55 °F (1990)
Degree Days  
Heating Degree Days 0 0  
Month to date heating degree days 0 0  
Since 1 July heating degree days 0 0  
Cooling Degree Days 16 11  
Month to date cooling degree days 142 133  
Year to date cooling degree days 3078 3026  
Growing Degree Days 30 (Base 50)    
Moisture  
Dew Point 73 °F    
Average Humidity 82    
Maximum Humidity 94    
Minimum Humidity 69    
Precipitation  
Precipitation 0.00 in 0.18 in 1.62 in (1997)
Month to date precipitation 0.84 2.00  
Year to date precipitation 30.13 39.21  
Snow  
Snow 0.00 in - 0.00 in (2002)
Month to date snowfall 0.0  
Since 1 July snowfall 0.0  
Since 1 September snowfall 0.0  
Snow Depth 0.00 in    
Sea Level Pressure  
Sea Level Pressure 29.94 in    
Wind  
Wind Speed 10 mph (SE)    
Max Wind Speed 14 mph    
Max Gust Speed 17 mph    
Visibility 10 miles    
Events      
T = Trace of Precipitation, MM = Missing Value Source: NWS Daily Summary

Daily Weather History Graph

Daily Weather History Graph

Search for Another Location

Airport or City:

Trip Planner

Search our weather history database for the weather conditions in past years. The results will help you decide how hot, cold, wet, or windy it might be!

Date:

Astronomy

Oct. 11, 2013 Rise Set
Actual Time 7:18 AM CDT 6:53 PM CDT
Civil Twilight 6:54 AM CDT 7:17 PM CDT
Nautical Twilight 6:27 AM CDT 7:44 PM CDT
Astronomical Twilight 5:59 AM CDT 8:12 PM CDT
Moon 1:47 PM CDT (10/11) No Moon Set
Length of Visible Light 12h 22m
Length of Day
11h 34m
Waxing Crescent, 47% of the Moon is Illuminated
Oct 11
Waxing Crescent
Oct 11
First Quarter
Oct 18
Full
Oct 26
Last Quarter
Nov 3
New

Hourly Weather History & Observations

Time (CDT) Temp. Heat Index Dew Point Humidity Pressure Visibility Wind Dir Wind Speed Gust Speed Precip Events Conditions
12:52 AM 75.9 °F - 68.0 °F 76% 29.97 in 10.0 mi SE 10.4 mph - N/A   Partly Cloudy
1:52 AM 75.9 °F - 68.0 °F 76% 29.96 in 10.0 mi SE 9.2 mph - N/A   Clear
2:52 AM 77.0 °F - 69.1 °F 76% 29.94 in 10.0 mi SSE 9.2 mph - N/A   Clear
3:27 AM 78.8 °F - 69.8 °F 74% 29.93 in 10.0 mi SSE 12.7 mph - N/A   Mostly Cloudy
3:35 AM 77.0 °F - 69.8 °F 78% 29.93 in 10.0 mi SSE 12.7 mph - N/A   Mostly Cloudy
3:52 AM 77.0 °F - 70.0 °F 79% 29.94 in 10.0 mi SSE 9.2 mph - N/A   Scattered Clouds
4:52 AM 77.0 °F - 68.0 °F 74% 29.93 in 10.0 mi SSE 10.4 mph - N/A   Clear
5:52 AM 77.0 °F - 68.0 °F 74% 29.93 in 10.0 mi South 11.5 mph - N/A   Clear
6:52 AM 75.9 °F - 69.1 °F 79% 29.94 in 10.0 mi SSE 8.1 mph - N/A   Partly Cloudy
7:52 AM 78.1 °F - 71.1 °F 79% 29.95 in 10.0 mi SSE 8.1 mph - N/A   Partly Cloudy
8:52 AM 80.1 °F 83.8 °F 72.0 °F 76% 29.97 in 10.0 mi South 8.1 mph - N/A   Partly Cloudy
9:52 AM 82.9 °F 88.0 °F 72.0 °F 69% 29.98 in 10.0 mi South 9.2 mph - N/A   Partly Cloudy
10:52 AM 82.9 °F 89.4 °F 73.9 °F 74% 29.98 in 10.0 mi South 10.4 mph - N/A   Clear
11:52 AM 84.9 °F 92.1 °F 73.9 °F 69% 29.98 in 10.0 mi SE 10.4 mph - N/A   Scattered Clouds
12:52 PM 84.0 °F 90.2 °F 73.0 °F 69% 29.96 in 10.0 mi SSE 10.4 mph - N/A   Mostly Cloudy
1:52 PM 84.0 °F 91.2 °F 73.9 °F 72% 29.94 in 10.0 mi SSE 10.4 mph - N/A   Mostly Cloudy
2:52 PM 82.9 °F 90.2 °F 75.0 °F 77% 29.93 in 10.0 mi SE 9.2 mph - N/A   Overcast
3:52 PM 82.9 °F 90.8 °F 75.9 °F 79% 29.93 in 10.0 mi ESE 8.1 mph - N/A   Mostly Cloudy
4:52 PM 82.9 °F 90.8 °F 75.9 °F 79% 29.91 in 10.0 mi SE 10.4 mph - N/A   Clear
5:52 PM 82.0 °F 89.4 °F 75.9 °F 82% 29.91 in 10.0 mi SE 10.4 mph - N/A   Partly Cloudy
6:52 PM 81.0 °F 87.9 °F 77.0 °F 88% 29.91 in 10.0 mi SE 10.4 mph - N/A   Clear
7:52 PM 80.1 °F 85.8 °F 77.0 °F 90% 29.93 in 10.0 mi SE 9.2 mph - N/A   Scattered Clouds
8:52 PM 80.1 °F 85.8 °F 77.0 °F 90% 29.94 in 10.0 mi SE 10.4 mph - N/A   Clear
9:52 PM 80.1 °F 86.4 °F 78.1 °F 94% 29.94 in 10.0 mi SE 11.5 mph - N/A   Clear
10:52 PM 80.1 °F 85.8 °F 77.0 °F 90% 29.95 in 10.0 mi SE 10.4 mph - N/A   Clear
11:52 PM 80.1 °F 86.4 °F 78.1 °F 94% 29.94 in 10.0 mi SE 9.2 mph - N/A   Clear